Regional Weather Roundup
Issued by NWS

Home | Current Version | Previous Version | Text Only | Print | Product List | Glossary Off
Versions: 1 2 3 4 5 6 7 8 9 10 11 12 13 14 15 16 17 18 19 20 21 22 23 24 25 26 27 28 29 30 31 32 33 34 35 36 37 38 39 40 41 42 43 44 45 46 47 48 49 50

000
ASUS43 KFSD 301802
RWRSD

WEATHER ROUNDUP FOR SOUTH DAKOTA
NATIONAL WEATHER SERVICE SIOUX FALLS SD
100 PM CDT TUE JUN 30 2015

NOTE: "FAIR" INDICATES FEW OR NO CLOUDS BELOW 12,000 FEET WITH NO
SIGNIFICANT WEATHER AND/OR OBSTRUCTIONS TO VISIBILITY.


SDZ001>005-009-010-012>017-301900-
NORTHWEST AND NORTH CENTRAL SOUTH DAKOTA

CITY           SKY/WX    TMP DP  RH WIND       PRES   REMARKS
BUFFALO          N/A     78  65  63 E8        29.86S
FAITH            N/A     76  60  57 SE15G23   29.90F
MOBRIDGE       CLOUDY    74  68  81 E5        29.90S
$$

SDZ012>016-024>037-041>051-057-063-072>074-301900-
SOUTHWEST AND SOUTH CENTRAL SOUTH DAKOTA

CITY           SKY/WX    TMP DP  RH WIND       PRES   REMARKS
RAPID CTY ARPT CLOUDY    79  64  60 S5        29.92F
PIERRE         CLOUDY    75  65  70 E13       29.88F
CUSTER         CLOUDY    82  51  34 SW9       30.09F
ELLSWORTH AFB  CLOUDY    81  64  56 S7        29.91F
PHILIP         CLOUDY    79  68  69 E7        29.88S
PINE RIDGE     CLOUDY    83  61  47 W5        29.95F
WINNER         FAIR      84  57  39 SE21G28   29.90F
$$

SDZ004>011-016>023-039-040-301900-
NORTHEAST SOUTH DAKOTA

CITY           SKY/WX    TMP DP  RH WIND       PRES   REMARKS
ABERDEEN       CLOUDY    73  65  75 NW3       29.93S
WATERTOWN      CLOUDY    73  62  68 E6        29.94S
BROOKINGS      PTSUNNY   73  63  68 SE6       29.95F
SISSETON         N/A     70  61  73 SE8       29.93S
$$

SDZ017-020-022-023-036>040-048>070-301900-
SOUTHEAST SOUTH DAKOTA

CITY           SKY/WX    TMP DP  RH WIND       PRES   REMARKS
SIOUX FALLS    CLOUDY    75  63  66 SE3       29.93F
HURON          CLOUDY    71  66  84 S7        29.92R
CHAMBERLAIN    CLOUDY    76  65  67 SE15      29.91F
MITCHELL       RAIN      70  68  93 SW8       29.92F FOG
YANKTON        CLOUDY    70  64  83 CALM      29.92R
$$

ABBREVIATIONS USED IN REMARKS
   TC - TEMPERATURE IN CELSIUS
  WCI - WIND CHILL INDEX
   HX - HEAT INDEX
  VSB - VISIBILITY




USA.gov is the U.S. government's official web portal to all federal, state and local government web resources and services.